703  
ASUS42 KFFC 280010  
RWRGA  
WEATHER ROUNDUP FOR GEORGIA  
NATIONAL WEATHER SERVICE PEACHTREE CITY GA  
800 PM EDT TUE SEP 27 2022  
 
NOTE: "FAIR" INDICATES FEW OR NO CLOUDS BELOW 12,000 FEET WITH NO  
SIGNIFICANT WEATHER AND/OR S TO VISIBILITY
.  
 
* = USE WITH CAUTION. THE STATIONS MARKED WITH AN ASTERISK MAY NOT  
REPORT WEATHER SUCH AS PRECIPITATION, FOG, OR THUNDER AND ARE NOT  
QUALITY CONTROLLED BY NWS.  
 
THE REMARK "TC" DENOTES TEMPERATURE READING IN DEGREES CELSIUS.  
 
GAZ001>058-280100-  
NORTH GEORGIA  
 
CITY SKY/WX TMP DP RH WIND PRES REMARKS
 
ATLANTA PTCLDY 68 37 32 N9 30.09R  
6HR MIN TEMP: 68; 6HR MAX TEMP: 76;  
 
ATHENS CLEAR 66 38 35 NW6 30.06R  
6HR MIN TEMP: 66; 6HR MAX TEMP: 79;  
 
CHAMBLEE CLEAR 64 38 38 N7 30.09R  
6HR MIN TEMP: 64; 6HR MAX TEMP: 74;  
 
PEACHTREE CITY CLEAR 68 37 32 NW6 30.09R  
6HR MIN TEMP: 67; 6HR MAX TEMP: 78;  
 
ROME CLEAR 65 43 44 NE5 30.10R  
6HR MIN TEMP: 65; 6HR MAX TEMP: 77;  
 
WEST ATLANTA CLEAR 66 36 32 N6 30.09R  
6HR MIN TEMP: 66; 6HR MAX TEMP: 75;  
 
GAINESVILLE CLEAR 65 42 43 NW7 30.10R  
6HR MIN TEMP: 64; 6HR MAX TEMP: 75;  
 
CARTERSVILLE CLEAR 66 37 34 CALM 30.11R  
 
 
CITY SKY/WX TMP DP RH WIND PRES REMARKS
 
DALTON* CLEAR 62 40 44 NW5 30.11S  
LAWRENCEVILLE* CLEAR 65 39 38 CALM 30.09R  
MARIETTA PTCLDY 66 34 31 NW8 30.08R  
KENNESAW* CLEAR 66 38 35 CALM 30.11R  
CANTON* CLEAR 62 40 43 NW8 30.11R  
BLAIRSVILLE* CLEAR 57 40 52 NW3 30.13R  

 
 
GAZ059>098-102>109-280100-  
CENTRAL GEORGIA  
 
CITY SKY/WX TMP DP RH WIND PRES REMARKS
 
AUGUSTA-BUSH MOCLDY 63 54 72 CALM 29.99R  
6HR MIN TEMP: 63; 6HR MAX TEMP: 82;  
 
AUGUSTA-DANIEL MOCLDY 74 37 26 NW5 30.01R  
6HR MIN TEMP: 74; 6HR MAX TEMP: 83;  
 
COLUMBUS CLEAR 72 38 29 N6 30.05R  
6HR MIN TEMP: 72; 6HR MAX TEMP: 81;  
 
MACON MOCLDY 70 41 34 NW6 30.03R  
6HR MIN TEMP: 70; 6HR MAX TEMP: 83;  
 
ROBINS AFB MOCLDY 68 45 44 N3 30.01R  
 
 
CITY SKY/WX TMP DP RH WIND PRES REMARKS
 
LAGRANGE* CLEAR 65 42 43 CALM 30.09R  
SYLVANIA* CLOUDY 63 59 85 CALM 30.02R  

 
 
GAZ099>101-110>166-280100-  
SOUTH GEORGIA  
 
CITY SKY/WX TMP DP RH WIND PRES REMARKS
 
SAVANNAH MOCLDY 67 56 67 N6 30.00R  
6HR MIN TEMP: 67; 6HR MAX TEMP: 80;  
 
VALDOSTA MOCLDY 67 51 56 N3 29.99R  
6HR MIN TEMP: 67; 6HR MAX TEMP: 84;  
 
ALMA MOCLDY 70 50 49 N3 30.00R  
6HR MIN TEMP: 70; 6HR MAX TEMP: 84;  
 
ST SIMONS CLOUDY 74 60 61 NE5 29.98R  
6HR MIN TEMP: 74; 6HR MAX TEMP: 84;  
 
FT STEWART MOCLDY 66 59 79 CALM 29.97R  
ALBANY MOCLDY 68 48 48 N3 30.01R  
HUNTER AFB MOCLDY 73 55 52 N3 29.97R  
MOODY AFB MOCLDY 66 52 60 NE3 29.97R  
BRUNSWICK CLOUDY 68 62 81 N6 29.98R  
 
 
CITY SKY/WX TMP DP RH WIND PRES REMARKS
 
BAINBRIDGE* MOCLDY 72 39 30 NE6 29.99R  
MOULTRIE* MOCLDY 68 50 52 CALM 30.00R  
VIDALIA* CLOUDY 68 55 64 CALM 30.01R  
WAYCROSS* MOCLDY 69 52 55 CALM 30.00R  
DOUGLAS* MOCLDY 70 48 45 NE3 30.02R  

 
 
 
CLICK HERE TO GO TO PREVIOUS BULLETINS.

The Nexlab GA Page Main Text Page